Location: Plainartige
(45.6866°N, 1.7993°E)
Time: 08:30:46
(UTC+00:00)

NOAA 19 - Visible Passes

Search period start: 25 June 2022 00:00
Search period end: 05 July 2022 00:00
Orbit: 840 x 861 km, 99.1° (Epoch: 24 June)

Date Brightness Start Highest point End Pass type
(mag) Time Alt. Az. Time Alt. Az. Time Alt. Az.
25 Jun 7.8 20:31:31 10° SW 20:34:57 17° W 20:38:22 10° NW visible
26 Jun 7.6 20:18:49 10° SW 20:22:55 21° W 20:27:01 10° NW visible
02 Jul 8.0 20:50:54 10° WSW 20:52:42 12° W 20:54:31 10° WNW visible
03 Jul 7.8 20:37:34 10° WSW 20:40:38 15° W 20:43:43 10° NW visible
04 Jul 7.7 20:24:46 10° SW 20:28:36 19° W 20:32:27 10° NW visible
